Tracking 22881 objects as of 20-Apr-2021
HD Live streaming from Space Station
objects crossing your sky now

STARLINK-2197

Track STARLINK-2197 now!
10-day predictions
STARLINK-2197 is classified as:


NORAD ID: 47774
Int'l Code: 2021-017BE
Perigee: 449.2 km
Apogee: 450.8 km
Inclination: 53.0 °
Period: 93.4 minutes
Semi major axis: 6821 km
RCS: Unknown
Launch date: March 4, 2021
Source: United States (US)
Launch site: AIR FORCE EASTERN TEST RANGE (AFETR)
aabbcc
Your satellite tracking list
Your tracking list is empty




NASA's NSSDC Master Catalog

Two Line Element Set (TLE):
1 47774U 21017BE  21109.58334491 -.00922636  00000-0 -23935-1 0  9993
2 47774  53.0438 315.9096 0001179  67.5123 196.6139 15.41094598  1764
Source of the keplerian elements: AFSPC